Regional Weather Roundup
Issued by NWS Albany, NY

Home | Current Version | Previous Version | Graphics & Text | Print | Product List | Glossary On
Versions: 1 2 3 4 5 6 7 8 9 10 11 12 13 14 15 16 17 18 19 20 21 22 23 24 25 26 27
000
ASUS41 KALY 310110
RWRALY

NEW YORK STATE HOURLY WEATHER ROUNDUP
NATIONAL WEATHER SERVICE ALBANY NY
900 PM EDT MON MAY 30 2016

NOTE: "FAIR" INDICATES FEW OR NO CLOUDS BELOW 12,000 FEET WITH NO
SIGNIFICANT WEATHER AND/OR NO OBSTRUCTIONS TO VISIBILITY.

NYZ032-033-038>043-046>054-057>066-NYZ062>081-082-084-310200-
EAST


CITY           SKY/WX    TMP DP  RH WIND       PRES   REMARKS
ALBANY         CLOUDY    70  65  84 S8        29.90R
GLENS FALLS    CLOUDY    75  63  66 S6        29.87R
POUGHKEEPSIE   CLOUDY    78  65  63 S5        29.91R
NEWBURGH       MOCLDY    73  63  68 W6        29.94
MONTGOMERY     CLOUDY    72  63  73 NW8       29.93R
WHITE PLAINS   CLOUDY    70  68  93 S5        29.94S
ISLIP          CLOUDY    68  65  90 SW16      29.96R
NEW YORK CITY  CLOUDY    75  72  90 S13       29.94R
CENTRAL PARK   CLOUDY    75  68  78 VRB7      29.97S
$$

NYZ005>009-017-018-044>046-055-056-310200-
CENTRAL


CITY           SKY/WX    TMP DP  RH WIND       PRES   REMARKS
FULTON         CLEAR     72  55  55 W9        29.92R
SYRACUSE       MOCLDY    72  57  59 SW6       29.91S
ROME           MOCLDY    74  57  55 W8        29.92R
ELMIRA         CLOUDY    70  54  56 NW3       29.95R
BINGHAMTON     MOCLDY    68  63  84 SW6       29.97R
MONTICELLO     CLOUDY    66  61  82 W6        29.99S
$$

NYZ026>034-041>043-087-310200-
NORTH


CITY           SKY/WX    TMP DP  RH WIND       PRES   REMARKS
WATERTOWN      PTCLDY    66  56  70 W8        29.88R
FORT DRUM      NOT AVBL
MASSENA        CLEAR     75  58  55 SW12      29.81R
SARANAC LAKE   CLEAR     69  52  54 SW8       29.89R
PLATTSBURGH    CLEAR     74  57  55 CALM      29.80R
$$

NYZ001>004-010>016-019>021-085-310200-
WEST


CITY           SKY/WX    TMP DP  RH WIND       PRES   REMARKS
NIAGARA FALLS  PTCLDY    71  48  43 NW7       29.95R
BUFFALO        PTCLDY    66  58  75 SW6       29.96R
DUNKIRK        CLEAR     69  56  62 SW7       29.98R
JAMESTOWN      CLEAR     66  52  59 NW5       30.02S
WELLSVILLE     CLEAR     67  53  61 NW7       30.03S
ROCHESTER      PTCLDY    73  54  51 N9        29.95R
PENN YAN       CLEAR     72  58  61 W5        29.96R
$$

             KEY
       WCI = WIND CHILL INDEX
       VSB = VISIBILITY
       HX  = HEAT INDEX
$$




USA.gov is the U.S. government's official web portal to all federal, state and local government web resources and services.